Location: Beneden-Haastrecht
(52.0012°N, 4.7557°E)
Time: 11:09:43
(UTC+00:00)

SJ-6B - Pass Details

Date: 24 October 2020
Orbit: 509 x 581 km, 97.6° (Epoch: 24 November)

Event Time Altitude Azimuth Distance (km) Brightness Sun altitude
Exits shadow 19:12:30 29° 357° (N) 1,090 4.4 -25.9°
Drops below altitude 10° 19:14:35 10° 350° (N) 1,908 5.8 -26.2°
Sets 19:16:46 0° 349° (NNW) 2,816 6.8 -26.6°
